Location: Bogis-Bossey
(46.3500°N, 6.1667°E)
Time: 17:56:48
(UTC+00:00)

Cosmos 1634 Rocket - Pass Details

Date: 17 August 2022
Orbit: 959 x 993 km, 82.9° (Epoch: 01 October)

Event Time Altitude Azimuth Distance (km) Brightness Sun altitude
Rises 23:02:13 0° 349° (N) 3,707 8.2 -29.9°
Reaches altitude 10° 23:04:46 10° 348° (NNW) 2,750 7.3 -30.0°
Enters shadow 23:10:56 71° 272° (W) 1,032 4.0 -30.1°
